Time,TemperatureF,DewpointF,PressureIn,WindDirection,WindDirectionDegrees,WindSpeedMPH,WindSpeedGustMPH,Humidity,HourlyPrecipIn,Conditions,Clouds,dailyrainin,SoftwareType,DateUTC
2013-10-18 00:01:00,54.2,45.5,29.97,NNW,336,0.0,0.0,72,0.00,,,0.00,WUHU216DAVISVP2,2013-10-18 07:01:00,
2013-10-18 00:06:00,54.2,45.5,29.97,NNW,336,0.0,0.0,72,0.00,,,0.00,WUHU216DAVISVP2,2013-10-18 07:06:00,
2013-10-18 00:11:00,54.1,45.4,29.97,NNW,336,0.0,0.0,72,0.00,,,0.00,WUHU216DAVISVP2,2013-10-18 07:11:00,
2013-10-18 00:16:00,53.9,45.5,29.98,NNW,336,0.0,0.0,73,0.00,,,0.00,WUHU216DAVISVP2,2013-10-18 07:16:00,
2013-10-18 00:21:00,53.8,45.8,29.97,NNW,336,0.0,0.0,74,0.00,,,0.00,WUHU216DAVISVP2,2013-10-18 07:21:00,
2013-10-18 00:26:00,53.7,45.7,29.97,NNW,336,0.0,0.0,74,0.00,,,0.00,WUHU216DAVISVP2,2013-10-18 07:26:00,
2013-10-18 00:31:00,53.6,45.6,29.97,NNW,336,0.0,0.0,74,0.00,,,0.00,WUHU216DAVISVP2,2013-10-18 07:31:00,
2013-10-18 00:36:00,53.5,45.5,29.97,NNW,336,0.0,0.0,74,0.00,,,0.00,WUHU216DAVISVP2,2013-10-18 07:36:00,
2013-10-18 00:41:00,53.3,45.3,29.97,NNW,336,0.0,0.0,74,0.00,,,0.00,WUHU216DAVISVP2,2013-10-18 07:41:00,
2013-10-18 00:46:00,53.2,44.9,29.97,NNW,336,0.0,0.0,73,0.00,,,0.00,WUHU216DAVISVP2,2013-10-18 07:46:00,
2013-10-18 00:51:00,53.1,44.8,29.97,NNW,336,0.0,0.0,73,0.00,,,0.00,WUHU216DAVISVP2,2013-10-18 07:51:00,
2013-10-18 00:56:00,52.9,44.6,29.97,NNW,336,0.0,0.0,73,0.00,,,0.00,WUHU216DAVISVP2,2013-10-18 07:56:00,
2013-10-18 01:01:00,52.8,44.7,29.97,NNW,336,0.0,0.0,74,0.00,,,0.00,WUHU216DAVISVP2,2013-10-18 08:01:00,
2013-10-18 01:06:00,52.6,44.5,29.97,NNW,336,0.0,0.0,74,0.00,,,0.00,WUHU216DAVISVP2,2013-10-18 08:06:00,
2013-10-18 01:11:00,52.4,44.7,29.97,NNW,336,0.0,0.0,75,0.00,,,0.00,WUHU216DAVISVP2,2013-10-18 08:11:00,
2013-10-18 01:16:00,52.2,44.9,29.97,NNW,336,0.0,0.0,76,0.00,,,0.00,WUHU216DAVISVP2,2013-10-18 08:16:00,
2013-10-18 01:21:00,52.0,44.7,29.97,NNW,336,0.0,0.0,76,0.00,,,0.00,WUHU216DAVISVP2,2013-10-18 08:21:00,
2013-10-18 01:26:00,51.8,44.5,29.98,NNW,336,0.0,0.0,76,0.00,,,0.00,WUHU216DAVISVP2,2013-10-18 08:26:00,
2013-10-18 01:31:00,51.6,44.3,29.98,NNW,336,0.0,2.0,76,0.00,,,0.00,WUHU216DAVISVP2,2013-10-18 08:31:00,
2013-10-18 01:36:00,51.4,44.5,29.98,NNW,336,0.0,2.0,77,0.00,,,0.00,WUHU216DAVISVP2,2013-10-18 08:36:00,
2013-10-18 01:41:00,51.2,44.3,29.98,NNW,336,0.0,0.0,77,0.00,,,0.00,WUHU216DAVISVP2,2013-10-18 08:41:00,
2013-10-18 01:46:00,51.1,44.5,29.98,NNW,336,0.0,0.0,78,0.00,,,0.00,WUHU216DAVISVP2,2013-10-18 08:46:00,
2013-10-18 01:51:00,50.8,44.2,29.98,NNW,336,0.0,0.0,78,0.00,,,0.00,WUHU216DAVISVP2,2013-10-18 08:51:00,
2013-10-18 01:56:00,50.7,44.1,29.98,NNW,336,0.0,0.0,78,0.00,,,0.00,WUHU216DAVISVP2,2013-10-18 08:56:00,
2013-10-18 02:01:00,50.6,44.3,29.99,NNW,336,2.0,2.0,79,0.00,,,0.00,WUHU216DAVISVP2,2013-10-18 09:01:00,
2013-10-18 02:06:00,50.4,44.1,29.99,NNW,336,1.0,2.0,79,0.00,,,0.00,WUHU216DAVISVP2,2013-10-18 09:06:00,
2013-10-18 02:11:00,50.3,44.0,29.99,NNW,336,0.0,2.0,79,0.00,,,0.00,WUHU216DAVISVP2,2013-10-18 09:11:00,
2013-10-18 02:16:00,50.3,44.4,29.99,NNW,336,0.0,1.0,80,0.00,,,0.00,WUHU216DAVISVP2,2013-10-18 09:16:00,
2013-10-18 02:21:00,50.2,44.3,29.99,NNW,336,0.0,0.0,80,0.00,,,0.00,WUHU216DAVISVP2,2013-10-18 09:21:00,
2013-10-18 02:26:00,50.2,44.3,29.99,NNW,336,0.0,0.0,80,0.00,,,0.00,WUHU216DAVISVP2,2013-10-18 09:26:00,
2013-10-18 02:31:00,50.1,44.2,29.99,NNW,336,0.0,0.0,80,0.00,,,0.00,WUHU216DAVISVP2,2013-10-18 09:31:00,
2013-10-18 02:36:00,50.2,44.6,29.99,NNW,336,0.0,0.0,81,0.00,,,0.00,WUHU216DAVISVP2,2013-10-18 09:36:00,
2013-10-18 02:41:00,50.1,44.5,29.99,NNW,336,0.0,0.0,81,0.00,,,0.00,WUHU216DAVISVP2,2013-10-18 09:41:00,
2013-10-18 02:46:00,50.2,44.6,29.99,NNW,336,0.0,0.0,81,0.00,,,0.00,WUHU216DAVISVP2,2013-10-18 09:46:00,
2013-10-18 02:51:00,50.2,44.6,29.98,NNW,336,0.0,0.0,81,0.00,,,0.00,WUHU216DAVISVP2,2013-10-18 09:51:00,
2013-10-18 02:56:00,50.2,44.6,29.98,NNW,336,0.0,0.0,81,0.00,,,0.00,WUHU216DAVISVP2,2013-10-18 09:56:00,
2013-10-18 03:01:00,50.3,44.7,29.98,NNW,336,0.0,0.0,81,0.00,,,0.00,WUHU216DAVISVP2,2013-10-18 10:01:00,
2013-10-18 03:06:00,50.3,44.7,29.99,NNW,336,0.0,0.0,81,0.00,,,0.00,WUHU216DAVISVP2,2013-10-18 10:06:00,
2013-10-18 03:11:00,50.3,44.4,29.99,NNW,336,0.0,0.0,80,0.00,,,0.00,WUHU216DAVISVP2,2013-10-18 10:11:00,
2013-10-18 03:16:00,50.2,44.3,29.99,NNW,336,0.0,0.0,80,0.00,,,0.00,WUHU216DAVISVP2,2013-10-18 10:16:00,
2013-10-18 03:21:00,50.2,44.3,29.99,NNW,336,0.0,0.0,80,0.00,,,0.00,WUHU216DAVISVP2,2013-10-18 10:21:00,
2013-10-18 03:26:00,50.0,44.1,29.99,NNW,336,0.0,2.0,80,0.00,,,0.00,WUHU216DAVISVP2,2013-10-18 10:26:00,
2013-10-18 03:31:00,49.9,44.0,29.99,NNW,336,0.0,2.0,80,0.00,,,0.00,WUHU216DAVISVP2,2013-10-18 10:31:00,
2013-10-18 03:36:00,49.7,43.8,29.99,NNW,336,0.0,0.0,80,0.00,,,0.00,WUHU216DAVISVP2,2013-10-18 10:36:00,
2013-10-18 03:41:00,49.6,43.7,29.99,NNW,336,0.0,0.0,80,0.00,,,0.00,WUHU216DAVISVP2,2013-10-18 10:41:00,
2013-10-18 03:46:00,49.4,43.5,29.99,NNW,336,0.0,0.0,80,0.00,,,0.00,WUHU216DAVISVP2,2013-10-18 10:46:00,
2013-10-18 03:51:00,49.3,43.7,29.98,NNW,336,0.0,0.0,81,0.00,,,0.00,WUHU216DAVISVP2,2013-10-18 10:51:00,
2013-10-18 03:56:00,49.2,43.6,29.98,NNW,336,0.0,0.0,81,0.00,,,0.00,WUHU216DAVISVP2,2013-10-18 10:56:00,
2013-10-18 04:01:00,49.1,43.5,29.98,NNW,336,0.0,0.0,81,0.00,,,0.00,WUHU216DAVISVP2,2013-10-18 11:01:00,
2013-10-18 04:06:00,48.9,43.3,29.99,NNW,336,0.0,0.0,81,0.00,,,0.00,WUHU216DAVISVP2,2013-10-18 11:06:00,
2013-10-18 04:11:00,48.8,43.3,29.99,NNW,336,0.0,0.0,81,0.00,,,0.00,WUHU216DAVISVP2,2013-10-18 11:11:00,
2013-10-18 04:16:00,48.7,43.5,29.99,NNW,336,0.0,1.0,82,0.00,,,0.00,WUHU216DAVISVP2,2013-10-18 11:16:00,
2013-10-18 04:21:00,48.5,43.0,29.99,NNW,336,0.0,1.0,81,0.00,,,0.00,WUHU216DAVISVP2,2013-10-18 11:21:00,
2013-10-18 04:26:00,48.4,43.2,29.99,NNW,336,0.0,1.0,82,0.00,,,0.00,WUHU216DAVISVP2,2013-10-18 11:26:00,
2013-10-18 04:31:00,48.3,43.1,29.99,NNW,336,0.0,0.0,82,0.00,,,0.00,WUHU216DAVISVP2,2013-10-18 11:31:00,
2013-10-18 04:36:00,48.2,43.0,29.99,NNW,336,0.0,0.0,82,0.00,,,0.00,WUHU216DAVISVP2,2013-10-18 11:36:00,
2013-10-18 04:41:00,48.1,43.2,29.99,NNW,336,0.0,0.0,83,0.00,,,0.00,WUHU216DAVISVP2,2013-10-18 11:41:00,
2013-10-18 04:46:00,47.9,42.7,29.99,NNW,336,0.0,0.0,82,0.00,,,0.00,WUHU216DAVISVP2,2013-10-18 11:46:00,
2013-10-18 04:51:00,47.8,42.9,29.99,NNW,336,0.0,0.0,83,0.00,,,0.00,WUHU216DAVISVP2,2013-10-18 11:51:00,
2013-10-18 04:56:00,47.7,42.8,30.00,NNW,336,0.0,0.0,83,0.00,,,0.00,WUHU216DAVISVP2,2013-10-18 11:56:00,
2013-10-18 05:01:00,47.7,42.8,30.00,NNW,336,0.0,0.0,83,0.00,,,0.00,WUHU216DAVISVP2,2013-10-18 12:01:00,
2013-10-18 05:06:00,47.6,43.0,30.00,NNW,336,0.0,0.0,84,0.00,,,0.00,WUHU216DAVISVP2,2013-10-18 12:06:00,
2013-10-18 05:11:00,47.6,43.0,30.00,NNW,336,0.0,0.0,84,0.00,,,0.00,WUHU216DAVISVP2,2013-10-18 12:11:00,
2013-10-18 05:16:00,47.5,42.9,30.00,NNW,336,0.0,0.0,84,0.00,,,0.00,WUHU216DAVISVP2,2013-10-18 12:16:00,
2013-10-18 05:21:00,47.5,43.2,30.00,NNW,336,0.0,0.0,85,0.00,,,0.00,WUHU216DAVISVP2,2013-10-18 12:21:00,
2013-10-18 05:26:00,47.5,43.2,30.00,NNW,336,0.0,0.0,85,0.00,,,0.00,WUHU216DAVISVP2,2013-10-18 12:26:00,
2013-10-18 05:31:00,47.5,43.2,30.00,NNW,336,0.0,0.0,85,0.00,,,0.00,WUHU216DAVISVP2,2013-10-18 12:31:00,
2013-10-18 05:36:00,47.4,43.1,30.00,NNW,336,0.0,0.0,85,0.00,,,0.00,WUHU216DAVISVP2,2013-10-18 12:36:00,
2013-10-18 05:41:00,47.4,43.1,30.00,NNW,336,0.0,0.0,85,0.00,,,0.00,WUHU216DAVISVP2,2013-10-18 12:41:00,
2013-10-18 05:46:00,47.4,43.1,30.00,NNW,336,0.0,0.0,85,0.00,,,0.00,WUHU216DAVISVP2,2013-10-18 12:46:00,
2013-10-18 05:51:00,47.4,43.1,30.00,NNW,336,0.0,0.0,85,0.00,,,0.00,WUHU216DAVISVP2,2013-10-18 12:51:00,
2013-10-18 05:56:00,47.4,43.1,30.00,NNW,336,0.0,0.0,85,0.00,,,0.00,WUHU216DAVISVP2,2013-10-18 12:56:00,
2013-10-18 06:01:00,47.4,43.1,30.00,NNW,336,0.0,1.0,85,0.00,,,0.00,WUHU216DAVISVP2,2013-10-18 13:01:00,
2013-10-18 06:06:00,47.4,43.1,30.01,NNW,336,0.0,1.0,85,0.00,,,0.00,WUHU216DAVISVP2,2013-10-18 13:06:00,
2013-10-18 06:11:00,47.4,43.1,30.01,NNW,336,0.0,1.0,85,0.00,,,0.00,WUHU216DAVISVP2,2013-10-18 13:11:00,
2013-10-18 06:16:00,47.3,43.0,30.01,NNW,336,0.0,3.0,85,0.00,,,0.00,WUHU216DAVISVP2,2013-10-18 13:16:00,
2013-10-18 06:21:00,47.3,43.0,30.01,NNW,336,0.0,3.0,85,0.00,,,0.00,WUHU216DAVISVP2,2013-10-18 13:21:00,
2013-10-18 06:26:00,47.4,42.8,30.01,NNW,336,0.0,2.0,84,0.00,,,0.00,WUHU216DAVISVP2,2013-10-18 13:26:00,
2013-10-18 06:31:00,47.4,42.8,30.01,NNW,336,0.0,2.0,84,0.00,,,0.00,WUHU216DAVISVP2,2013-10-18 13:31:00,
2013-10-18 06:36:00,47.5,42.9,30.01,NNW,336,0.0,0.0,84,0.00,,,0.00,WUHU216DAVISVP2,2013-10-18 13:36:00,
2013-10-18 06:41:00,47.6,42.7,30.01,NNW,336,0.0,0.0,83,0.00,,,0.00,WUHU216DAVISVP2,2013-10-18 13:41:00,
2013-10-18 06:46:00,47.6,42.7,30.01,NNW,336,0.0,0.0,83,0.00,,,0.00,WUHU216DAVISVP2,2013-10-18 13:46:00,
2013-10-18 06:51:00,47.7,42.8,30.01,NNW,336,0.0,0.0,83,0.00,,,0.00,WUHU216DAVISVP2,2013-10-18 13:51:00,
2013-10-18 06:56:00,47.7,42.8,30.01,NNW,336,0.0,0.0,83,0.00,,,0.00,WUHU216DAVISVP2,2013-10-18 13:56:00,
2013-10-18 07:02:00,47.7,42.5,30.01,NNW,336,0.0,0.0,82,0.00,,,0.00,WUHU216DAVISVP2,2013-10-18 14:02:00,
2013-10-18 07:07:00,47.7,42.5,30.02,NNW,336,0.0,0.0,82,0.00,,,0.00,WUHU216DAVISVP2,2013-10-18 14:07:00,
2013-10-18 07:12:00,47.6,42.4,30.02,NNW,336,0.0,0.0,82,0.00,,,0.00,WUHU216DAVISVP2,2013-10-18 14:12:00,
2013-10-18 07:17:00,47.5,42.0,30.01,NNW,336,0.0,0.0,81,0.00,,,0.00,WUHU216DAVISVP2,2013-10-18 14:17:00,
2013-10-18 07:22:00,47.5,42.0,30.02,NNW,336,0.0,0.0,81,0.00,,,0.00,WUHU216DAVISVP2,2013-10-18 14:22:00,
2013-10-18 07:27:00,47.4,41.9,30.02,NNW,336,0.0,0.0,81,0.00,,,0.00,WUHU216DAVISVP2,2013-10-18 14:27:00,
2013-10-18 07:32:00,47.4,42.2,30.02,NNW,336,0.0,0.0,82,0.00,,,0.00,WUHU216DAVISVP2,2013-10-18 14:32:00,
2013-10-18 07:37:00,47.4,42.5,30.02,NNW,336,0.0,0.0,83,0.00,,,0.00,WUHU216DAVISVP2,2013-10-18 14:37:00,
2013-10-18 07:42:00,47.4,42.5,30.02,NNW,336,0.0,0.0,83,0.00,,,0.00,WUHU216DAVISVP2,2013-10-18 14:42:00,
2013-10-18 07:47:00,47.4,42.8,30.02,NNW,336,0.0,0.0,84,0.00,,,0.00,WUHU216DAVISVP2,2013-10-18 14:47:00,
2013-10-18 07:52:00,47.5,42.9,30.02,NNW,336,0.0,0.0,84,0.00,,,0.00,WUHU216DAVISVP2,2013-10-18 14:52:00,
2013-10-18 07:57:00,47.8,43.2,30.03,NNW,336,0.0,0.0,84,0.00,,,0.00,WUHU216DAVISVP2,2013-10-18 14:57:00,
2013-10-18 08:02:00,48.1,43.2,30.03,NNW,336,0.0,0.0,83,0.00,,,0.00,WUHU216DAVISVP2,2013-10-18 15:02:00,
2013-10-18 08:07:00,48.3,43.4,30.03,NNW,336,0.0,0.0,83,0.00,,,0.00,WUHU216DAVISVP2,2013-10-18 15:07:00,
2013-10-18 08:12:00,48.6,43.1,30.03,NNW,336,0.0,1.0,81,0.00,,,0.00,WUHU216DAVISVP2,2013-10-18 15:12:00,
2013-10-18 08:17:00,49.0,43.1,30.03,NNW,336,0.0,3.0,80,0.00,,,0.00,WUHU216DAVISVP2,2013-10-18 15:17:00,
2013-10-18 08:22:00,49.4,42.9,30.04,NNW,336,0.0,3.0,78,0.00,,,0.00,WUHU216DAVISVP2,2013-10-18 15:22:00,
2013-10-18 08:27:00,49.9,43.0,30.04,NNW,336,0.0,0.0,77,0.00,,,0.00,WUHU216DAVISVP2,2013-10-18 15:27:00,
2013-10-18 08:32:00,50.5,43.3,30.04,NNW,336,0.0,0.0,76,0.00,,,0.00,WUHU216DAVISVP2,2013-10-18 15:32:00,
2013-10-18 08:37:00,51.2,44.0,30.04,NNW,336,0.0,1.0,76,0.00,,,0.00,WUHU216DAVISVP2,2013-10-18 15:37:00,
2013-10-18 08:42:00,51.9,44.3,30.04,NNW,336,1.0,2.0,75,0.00,,,0.00,WUHU216DAVISVP2,2013-10-18 15:42:00,
2013-10-18 08:47:00,52.8,44.0,30.04,NNW,336,0.0,2.0,72,0.00,,,0.00,WUHU216DAVISVP2,2013-10-18 15:47:00,
2013-10-18 08:57:00,54.4,45.2,30.04,NNW,336,2.0,3.0,71,0.00,,,0.00,WUHU216DAVISVP2,2013-10-18 15:57:00,
2013-10-18 09:02:00,55.5,46.2,30.05,NNW,336,0.0,3.0,71,0.00,,,0.00,WUHU216DAVISVP2,2013-10-18 16:02:00,
2013-10-18 09:12:00,57.3,46.4,30.05,NNW,336,0.0,3.0,67,0.00,,,0.00,WUHU216DAVISVP2,2013-10-18 16:12:00,
2013-10-18 09:17:00,58.2,46.5,30.05,NNW,336,0.0,3.0,65,0.00,,,0.00,WUHU216DAVISVP2,2013-10-18 16:17:00,
2013-10-18 09:22:00,58.8,47.9,30.05,NNW,336,1.0,2.0,67,0.00,,,0.00,WUHU216DAVISVP2,2013-10-18 16:22:00,
2013-10-18 09:27:00,59.2,46.2,30.05,NNW,336,0.0,2.0,62,0.00,,,0.00,WUHU216DAVISVP2,2013-10-18 16:27:00,
2013-10-18 09:32:00,60.0,46.9,30.05,NNW,336,0.0,2.0,62,0.00,,,0.00,WUHU216DAVISVP2,2013-10-18 16:32:00,
2013-10-18 09:37:00,60.5,47.1,30.05,NNW,336,1.0,1.0,61,0.00,,,0.00,WUHU216DAVISVP2,2013-10-18 16:37:00,
2013-10-18 09:47:00,61.8,46.5,30.05,NNW,336,0.0,1.0,57,0.00,,,0.00,WUHU216DAVISVP2,2013-10-18 16:47:00,
2013-10-18 09:52:00,62.2,46.4,30.05,NNW,336,0.0,0.0,56,0.00,,,0.00,WUHU216DAVISVP2,2013-10-18 16:52:00,
2013-10-18 09:57:00,63.5,47.0,30.05,NNW,336,2.0,2.0,55,0.00,,,0.00,WUHU216DAVISVP2,2013-10-18 16:57:00,
2013-10-18 10:02:00,64.0,46.5,30.05,NNW,336,0.0,2.0,53,0.00,,,0.00,WUHU216DAVISVP2,2013-10-18 17:02:00,
2013-10-18 10:07:00,64.4,47.4,30.05,NNW,336,0.0,2.0,54,0.00,,,0.00,WUHU216DAVISVP2,2013-10-18 17:07:00,
2013-10-18 10:12:00,64.4,46.4,30.05,NNW,336,0.0,2.0,52,0.00,,,0.00,WUHU216DAVISVP2,2013-10-18 17:12:00,
2013-10-18 10:17:00,65.2,47.7,30.05,NNW,336,0.0,2.0,53,0.00,,,0.00,WUHU216DAVISVP2,2013-10-18 17:17:00,
2013-10-18 10:22:00,65.0,46.5,30.05,NNW,336,0.0,1.0,51,0.00,,,0.00,WUHU216DAVISVP2,2013-10-18 17:22:00,
2013-10-18 10:27:00,66.0,47.4,30.05,NNW,336,0.0,1.0,51,0.00,,,0.00,WUHU216DAVISVP2,2013-10-18 17:27:00,
2013-10-18 10:32:00,67.0,48.3,30.05,NNW,336,0.0,1.0,51,0.00,,,0.00,WUHU216DAVISVP2,2013-10-18 17:32:00,
2013-10-18 10:42:00,68.8,47.2,30.05,NNW,336,0.0,1.0,46,0.00,,,0.00,WUHU216DAVISVP2,2013-10-18 17:42:00,
2013-10-18 10:47:00,69.6,46.0,30.05,NNW,336,0.0,1.0,43,0.00,,,0.00,WUHU216DAVISVP2,2013-10-18 17:47:00,
2013-10-18 10:52:00,69.8,46.2,30.05,NNW,336,0.0,0.0,43,0.00,,,0.00,WUHU216DAVISVP2,2013-10-18 17:52:00,
2013-10-18 10:57:00,71.1,47.4,30.05,NNW,336,0.0,1.0,43,0.00,,,0.00,WUHU216DAVISVP2,2013-10-18 17:57:00,
2013-10-18 11:02:00,70.4,47.4,30.05,NNW,336,0.0,3.0,44,0.00,,,0.00,WUHU216DAVISVP2,2013-10-18 18:02:00,
2013-10-18 11:07:00,70.6,47.6,30.05,NNW,336,0.0,3.0,44,0.00,,,0.00,WUHU216DAVISVP2,2013-10-18 18:07:00,
2013-10-18 11:12:00,71.2,46.8,30.04,NNW,336,0.0,2.0,42,0.00,,,0.00,WUHU216DAVISVP2,2013-10-18 18:12:00,
2013-10-18 11:17:00,71.7,47.9,30.04,NNW,336,2.0,4.0,43,0.00,,,0.00,WUHU216DAVISVP2,2013-10-18 18:17:00,
2013-10-18 11:22:00,71.3,45.6,30.04,NNW,336,0.0,4.0,40,0.00,,,0.00,WUHU216DAVISVP2,2013-10-18 18:22:00,
2013-10-18 11:27:00,71.9,46.8,30.04,NNW,336,0.0,2.0,41,0.00,,,0.00,WUHU216DAVISVP2,2013-10-18 18:27:00,
2013-10-18 11:32:00,72.3,44.4,30.04,NNW,336,0.0,3.0,37,0.00,,,0.00,WUHU216DAVISVP2,2013-10-18 18:32:00,
2013-10-18 11:37:00,73.2,45.9,30.04,NNW,336,0.0,4.0,38,0.00,,,0.00,WUHU216DAVISVP2,2013-10-18 18:37:00,
2013-10-18 11:42:00,72.8,44.1,30.04,NNW,336,0.0,4.0,36,0.00,,,0.00,WUHU216DAVISVP2,2013-10-18 18:42:00,
2013-10-18 11:47:00,73.5,44.8,30.04,NNW,336,0.0,1.0,36,0.00,,,0.00,WUHU216DAVISVP2,2013-10-18 18:47:00,
2013-10-18 11:52:00,73.9,45.1,30.03,NNW,336,0.0,0.0,36,0.00,,,0.00,WUHU216DAVISVP2,2013-10-18 18:52:00,
2013-10-18 11:57:00,74.6,45.0,30.03,NNW,336,0.0,0.0,35,0.00,,,0.00,WUHU216DAVISVP2,2013-10-18 18:57:00,
2013-10-18 12:02:00,75.5,44.2,30.03,NNW,336,0.0,4.0,33,0.00,,,0.00,WUHU216DAVISVP2,2013-10-18 19:02:00,
2013-10-18 12:07:00,75.6,45.9,30.03,NNW,336,0.0,4.0,35,0.00,,,0.00,WUHU216DAVISVP2,2013-10-18 19:07:00,
2013-10-18 12:12:00,75.3,46.3,30.03,NNW,336,5.0,6.0,36,0.00,,,0.00,WUHU216DAVISVP2,2013-10-18 19:12:00,
2013-10-18 12:17:00,75.2,46.3,30.03,NNW,336,0.0,6.0,36,0.00,,,0.00,WUHU216DAVISVP2,2013-10-18 19:17:00,
2013-10-18 12:23:00,76.0,46.2,30.02,NNW,336,0.0,4.0,35,0.00,,,0.00,WUHU216DAVISVP2,2013-10-18 19:23:00,
2013-10-18 12:28:00,76.9,47.0,30.02,NNW,336,0.0,3.0,35,0.00,,,0.00,WUHU216DAVISVP2,2013-10-18 19:28:00,
2013-10-18 12:33:00,76.4,44.2,30.02,NNW,336,5.0,5.0,32,0.00,,,0.00,WUHU216DAVISVP2,2013-10-18 19:33:00,
2013-10-18 12:38:00,76.1,43.9,30.02,NNW,336,0.0,5.0,32,0.00,,,0.00,WUHU216DAVISVP2,2013-10-18 19:38:00,
2013-10-18 12:43:00,76.8,45.4,30.02,NNW,336,0.0,5.0,33,0.00,,,0.00,WUHU216DAVISVP2,2013-10-18 19:43:00,
2013-10-18 12:48:00,77.0,44.7,30.01,NNW,336,0.0,1.0,32,0.00,,,0.00,WUHU216DAVISVP2,2013-10-18 19:48:00,
2013-10-18 12:53:00,78.1,46.6,30.01,NNW,336,0.0,1.0,33,0.00,,,0.00,WUHU216DAVISVP2,2013-10-18 19:53:00,
2013-10-18 12:58:00,78.0,45.7,30.01,NNW,336,2.0,4.0,32,0.00,,,0.00,WUHU216DAVISVP2,2013-10-18 19:58:00,
2013-10-18 13:03:00,77.7,46.3,30.01,NNW,336,4.0,5.0,33,0.00,,,0.00,WUHU216DAVISVP2,2013-10-18 20:03:00,
2013-10-18 13:08:00,78.2,46.6,30.00,NNW,336,0.0,5.0,33,0.00,,,0.00,WUHU216DAVISVP2,2013-10-18 20:08:00,
2013-10-18 13:13:00,78.7,45.4,30.00,NNW,336,0.0,4.0,31,0.00,,,0.00,WUHU216DAVISVP2,2013-10-18 20:13:00,
2013-10-18 13:18:00,79.1,45.7,30.00,NNW,336,0.0,0.0,31,0.00,,,0.00,WUHU216DAVISVP2,2013-10-18 20:18:00,
2013-10-18 13:23:00,78.8,44.6,30.00,NNW,336,0.0,0.0,30,0.00,,,0.00,WUHU216DAVISVP2,2013-10-18 20:23:00,
2013-10-18 13:28:00,79.0,43.9,30.00,NNW,335,0.0,1.0,29,0.00,,,0.00,WUHU216DAVISVP2,2013-10-18 20:28:00,
2013-10-18 13:33:00,80.1,45.7,30.00,NNW,335,0.0,1.0,30,0.00,,,0.00,WUHU216DAVISVP2,2013-10-18 20:33:00,
2013-10-18 13:38:00,79.9,44.7,29.99,NNW,333,5.0,5.0,29,0.00,,,0.00,WUHU216DAVISVP2,2013-10-18 20:38:00,
2013-10-18 13:43:00,79.4,46.0,29.99,NNW,331,0.0,6.0,31,0.00,,,0.00,WUHU216DAVISVP2,2013-10-18 20:43:00,
2013-10-18 13:48:00,80.0,46.5,29.99,NNW,331,1.0,6.0,31,0.00,,,0.00,WUHU216DAVISVP2,2013-10-18 20:48:00,
2013-10-18 13:53:00,80.5,47.1,29.99,NNW,330,2.0,6.0,31,0.00,,,0.00,WUHU216DAVISVP2,2013-10-18 20:53:00,
2013-10-18 13:58:00,80.5,46.2,29.98,NNW,330,3.0,6.0,30,0.00,,,0.00,WUHU216DAVISVP2,2013-10-18 20:58:00,
2013-10-18 14:03:00,80.6,44.5,29.98,NNW,330,5.0,6.0,28,0.00,,,0.00,WUHU216DAVISVP2,2013-10-18 21:03:00,
2013-10-18 14:08:00,79.7,45.5,29.98,NNW,330,0.0,6.0,30,0.00,,,0.00,WUHU216DAVISVP2,2013-10-18 21:08:00,
2013-10-18 14:13:00,79.9,42.9,29.98,NNW,331,0.0,7.0,27,0.00,,,0.00,WUHU216DAVISVP2,2013-10-18 21:13:00,
2013-10-18 14:18:00,79.9,41.8,29.98,NNW,328,0.0,7.0,26,0.00,,,0.00,WUHU216DAVISVP2,2013-10-18 21:18:00,
2013-10-18 14:23:00,80.2,43.1,29.98,NNW,328,0.0,7.0,27,0.00,,,0.00,WUHU216DAVISVP2,2013-10-18 21:23:00,
2013-10-18 14:28:00,80.1,42.0,29.98,NNW,328,0.0,1.0,26,0.00,,,0.00,WUHU216DAVISVP2,2013-10-18 21:28:00,
2013-10-18 14:33:00,80.1,43.9,29.97,NNW,328,4.0,6.0,28,0.00,,,0.00,WUHU216DAVISVP2,2013-10-18 21:33:00,
2013-10-18 14:38:00,80.3,45.0,29.97,NNW,328,3.0,6.0,29,0.00,,,0.00,WUHU216DAVISVP2,2013-10-18 21:38:00,
2013-10-18 14:43:00,80.7,46.2,29.97,NNW,327,0.0,7.0,30,0.00,,,0.00,WUHU216DAVISVP2,2013-10-18 21:43:00,
2013-10-18 14:48:00,81.0,44.7,29.97,NNW,327,0.0,7.0,28,0.00,,,0.00,WUHU216DAVISVP2,2013-10-18 21:48:00,
2013-10-18 14:53:00,80.6,44.5,29.97,NNW,327,0.0,6.0,28,0.00,,,0.00,WUHU216DAVISVP2,2013-10-18 21:53:00,
2013-10-18 14:58:00,80.9,45.7,29.97,NW,321,0.0,5.0,29,0.00,,,0.00,WUHU216DAVISVP2,2013-10-18 21:58:00,
2013-10-18 15:03:00,81.6,45.3,29.97,NW,321,0.0,5.0,28,0.00,,,0.00,WUHU216DAVISVP2,2013-10-18 22:03:00,
2013-10-18 15:08:00,81.7,45.3,29.97,NNW,343,0.0,1.0,28,0.00,,,0.00,WUHU216DAVISVP2,2013-10-18 22:08:00,
2013-10-18 15:13:00,81.6,45.2,29.97,NNW,344,0.0,4.0,28,0.00,,,0.00,WUHU216DAVISVP2,2013-10-18 22:13:00,
2013-10-18 15:18:00,81.3,44.9,29.97,NNW,345,0.0,4.0,28,0.00,,,0.00,WUHU216DAVISVP2,2013-10-18 22:18:00,
2013-10-18 15:23:00,81.2,43.9,29.97,NNW,344,0.0,5.0,27,0.00,,,0.00,WUHU216DAVISVP2,2013-10-18 22:23:00,
2013-10-18 15:28:00,81.4,44.1,29.97,NNW,333,4.0,6.0,27,0.00,,,0.00,WUHU216DAVISVP2,2013-10-18 22:28:00,
2013-10-18 15:33:00,81.1,44.8,29.97,NW,311,3.0,6.0,28,0.00,,,0.00,WUHU216DAVISVP2,2013-10-18 22:33:00,
2013-10-18 15:38:00,81.7,44.3,29.97,NW,315,0.0,7.0,27,0.00,,,0.00,WUHU216DAVISVP2,2013-10-18 22:38:00,
2013-10-18 15:43:00,81.3,43.0,29.96,NW,315,0.0,7.0,26,0.00,,,0.00,WUHU216DAVISVP2,2013-10-18 22:43:00,
2013-10-18 15:48:00,81.2,43.9,29.96,NW,317,4.0,8.0,27,0.00,,,0.00,WUHU216DAVISVP2,2013-10-18 22:48:00,
2013-10-18 15:53:00,81.1,44.8,29.96,NW,317,5.0,8.0,28,0.00,,,0.00,WUHU216DAVISVP2,2013-10-18 22:53:00,
2013-10-18 15:58:00,81.2,42.9,29.96,NW,317,4.0,6.0,26,0.00,,,0.00,WUHU216DAVISVP2,2013-10-18 22:58:00,
2013-10-18 16:03:00,81.1,43.8,29.96,NW,316,0.0,6.0,27,0.00,,,0.00,WUHU216DAVISVP2,2013-10-18 23:03:00,
2013-10-18 16:08:00,81.2,43.9,29.96,NNW,332,3.0,6.0,27,0.00,,,0.00,WUHU216DAVISVP2,2013-10-18 23:08:00,
2013-10-18 16:13:00,81.1,43.8,29.96,NW,307,2.0,6.0,27,0.00,,,0.00,WUHU216DAVISVP2,2013-10-18 23:13:00,
2013-10-18 16:18:00,80.9,43.7,29.96,NW,308,0.0,6.0,27,0.00,,,0.00,WUHU216DAVISVP2,2013-10-18 23:18:00,
2013-10-18 16:23:00,80.6,44.3,29.96,NW,308,0.0,5.0,28,0.00,,,0.00,WUHU216DAVISVP2,2013-10-18 23:23:00,
2013-10-18 16:28:00,80.9,43.7,29.96,NW,308,3.0,5.0,27,0.00,,,0.00,WUHU216DAVISVP2,2013-10-18 23:28:00,
2013-10-18 16:33:00,80.7,44.6,29.95,NW,308,0.0,5.0,28,0.00,,,0.00,WUHU216DAVISVP2,2013-10-18 23:33:00,
2013-10-18 16:38:00,80.8,45.6,29.95,NW,308,0.0,5.0,29,0.00,,,0.00,WUHU216DAVISVP2,2013-10-18 23:38:00,
2013-10-18 16:43:00,80.7,44.6,29.95,NW,309,1.0,5.0,28,0.00,,,0.00,WUHU216DAVISVP2,2013-10-18 23:43:00,
2013-10-18 16:48:00,80.5,45.3,29.96,NW,309,0.0,4.0,29,0.00,,,0.00,WUHU216DAVISVP2,2013-10-18 23:48:00,
2013-10-18 16:53:00,80.4,43.2,29.95,NW,309,0.0,6.0,27,0.00,,,0.00,WUHU216DAVISVP2,2013-10-18 23:53:00,
2013-10-18 16:58:00,80.2,44.0,29.95,NW,309,0.0,6.0,28,0.00,,,0.00,WUHU216DAVISVP2,2013-10-18 23:58:00,
2013-10-18 17:03:00,80.0,43.8,29.95,NW,309,3.0,4.0,28,0.00,,,0.00,WUHU216DAVISVP2,2013-10-19 00:03:00,
2013-10-18 17:08:00,79.8,44.6,29.95,NW,309,0.0,5.0,29,0.00,,,0.00,WUHU216DAVISVP2,2013-10-19 00:08:00,
2013-10-18 17:13:00,79.7,45.4,29.95,NW,309,0.0,5.0,30,0.00,,,0.00,WUHU216DAVISVP2,2013-10-19 00:13:00,
2013-10-18 17:18:00,79.3,45.0,29.95,NW,309,0.0,1.0,30,0.00,,,0.00,WUHU216DAVISVP2,2013-10-19 00:18:00,
2013-10-18 17:23:00,79.4,44.2,29.95,NW,309,3.0,4.0,29,0.00,,,0.00,WUHU216DAVISVP2,2013-10-19 00:23:00,
2013-10-18 17:28:00,79.1,44.9,29.95,NW,309,0.0,4.0,30,0.00,,,0.00,WUHU216DAVISVP2,2013-10-19 00:28:00,
2013-10-18 17:33:00,78.7,44.5,29.95,NW,309,0.0,3.0,30,0.00,,,0.00,WUHU216DAVISVP2,2013-10-19 00:33:00,
2013-10-18 17:38:00,78.6,44.4,29.95,NW,309,0.0,1.0,30,0.00,,,0.00,WUHU216DAVISVP2,2013-10-19 00:38:00,
2013-10-18 17:43:00,78.1,44.8,29.95,NW,309,0.0,0.0,31,0.00,,,0.00,WUHU216DAVISVP2,2013-10-19 00:43:00,
2013-10-18 17:48:00,77.5,46.0,29.95,NW,309,0.0,0.0,33,0.00,,,0.00,WUHU216DAVISVP2,2013-10-19 00:48:00,
2013-10-18 17:53:00,77.0,46.3,29.95,NW,309,0.0,0.0,34,0.00,,,0.00,WUHU216DAVISVP2,2013-10-19 00:53:00,
2013-10-18 17:58:00,76.4,46.6,29.95,NW,309,0.0,0.0,35,0.00,,,0.00,WUHU216DAVISVP2,2013-10-19 00:58:00,
2013-10-18 18:03:00,75.7,46.7,29.95,NW,309,0.0,0.0,36,0.00,,,0.00,WUHU216DAVISVP2,2013-10-19 01:03:00,
2013-10-18 18:08:00,75.1,46.9,29.95,NW,309,0.0,0.0,37,0.00,,,0.00,WUHU216DAVISVP2,2013-10-19 01:08:00,
2013-10-18 18:13:00,74.3,47.6,29.95,NW,309,0.0,0.0,39,0.00,,,0.00,WUHU216DAVISVP2,2013-10-19 01:13:00,
2013-10-18 18:18:00,73.5,47.6,29.95,NW,309,0.0,0.0,40,0.00,,,0.00,WUHU216DAVISVP2,2013-10-19 01:18:00,
2013-10-18 18:23:00,72.8,48.9,29.96,NW,309,0.0,0.0,43,0.00,,,0.00,WUHU216DAVISVP2,2013-10-19 01:23:00,
2013-10-18 18:28:00,72.2,49.0,29.96,NW,309,0.0,0.0,44,0.00,,,0.00,WUHU216DAVISVP2,2013-10-19 01:28:00,
2013-10-18 18:33:00,71.4,49.5,29.96,NW,309,0.0,0.0,46,0.00,,,0.00,WUHU216DAVISVP2,2013-10-19 01:33:00,
2013-10-18 18:38:00,70.7,49.5,29.96,NW,309,0.0,0.0,47,0.00,,,0.00,WUHU216DAVISVP2,2013-10-19 01:38:00,
2013-10-18 18:43:00,69.8,49.2,29.96,NW,309,0.0,0.0,48,0.00,,,0.00,WUHU216DAVISVP2,2013-10-19 01:43:00,
2013-10-18 18:48:00,69.1,49.1,29.96,NW,309,0.0,0.0,49,0.00,,,0.00,WUHU216DAVISVP2,2013-10-19 01:48:00,
2013-10-18 18:53:00,68.3,48.9,29.96,NW,309,0.0,0.0,50,0.00,,,0.00,WUHU216DAVISVP2,2013-10-19 01:53:00,
2013-10-18 18:58:00,67.6,49.3,29.96,NW,309,0.0,0.0,52,0.00,,,0.00,WUHU216DAVISVP2,2013-10-19 01:58:00,
2013-10-18 19:03:00,66.9,49.2,29.97,NW,309,0.0,0.0,53,0.00,,,0.00,WUHU216DAVISVP2,2013-10-19 02:03:00,
2013-10-18 19:08:00,66.4,49.7,29.96,NW,309,0.0,0.0,55,0.00,,,0.00,WUHU216DAVISVP2,2013-10-19 02:08:00,
2013-10-18 19:13:00,66.1,49.5,29.97,NW,309,0.0,0.0,55,0.00,,,0.00,WUHU216DAVISVP2,2013-10-19 02:13:00,
2013-10-18 19:18:00,65.6,49.5,29.97,NW,309,0.0,0.0,56,0.00,,,0.00,WUHU216DAVISVP2,2013-10-19 02:18:00,
2013-10-18 19:23:00,65.2,50.2,29.97,NW,309,0.0,0.0,58,0.00,,,0.00,WUHU216DAVISVP2,2013-10-19 02:23:00,
2013-10-18 19:28:00,64.9,49.9,29.97,NW,309,0.0,0.0,58,0.00,,,0.00,WUHU216DAVISVP2,2013-10-19 02:28:00,
2013-10-18 19:33:00,64.5,50.0,29.97,NW,309,0.0,0.0,59,0.00,,,0.00,WUHU216DAVISVP2,2013-10-19 02:33:00,
2013-10-18 19:38:00,64.1,49.5,29.97,NW,309,0.0,0.0,59,0.00,,,0.00,WUHU216DAVISVP2,2013-10-19 02:38:00,
2013-10-18 19:43:00,63.6,50.1,29.97,NW,309,0.0,0.0,61,0.00,,,0.00,WUHU216DAVISVP2,2013-10-19 02:43:00,
2013-10-18 19:48:00,63.1,49.6,29.97,NW,309,0.0,0.0,61,0.00,,,0.00,WUHU216DAVISVP2,2013-10-19 02:48:00,
2013-10-18 19:53:00,62.6,50.0,29.97,NW,309,0.0,0.0,63,0.00,,,0.00,WUHU216DAVISVP2,2013-10-19 02:53:00,
2013-10-18 19:58:00,62.4,50.1,29.97,NW,309,0.0,0.0,64,0.00,,,0.00,WUHU216DAVISVP2,2013-10-19 02:58:00,
2013-10-18 20:03:00,62.5,50.6,29.97,NW,309,0.0,0.0,65,0.00,,,0.00,WUHU216DAVISVP2,2013-10-19 03:03:00,
2013-10-18 20:08:00,62.6,51.1,29.97,NW,309,0.0,0.0,66,0.00,,,0.00,WUHU216DAVISVP2,2013-10-19 03:08:00,
2013-10-18 20:13:00,62.6,51.1,29.97,NW,309,0.0,0.0,66,0.00,,,0.00,WUHU216DAVISVP2,2013-10-19 03:13:00,
2013-10-18 20:18:00,62.4,51.3,29.97,NW,309,0.0,0.0,67,0.00,,,0.00,WUHU216DAVISVP2,2013-10-19 03:18:00,
2013-10-18 20:23:00,62.2,51.5,29.98,NW,309,0.0,0.0,68,0.00,,,0.00,WUHU216DAVISVP2,2013-10-19 03:23:00,
2013-10-18 20:28:00,62.1,51.0,29.98,NW,309,0.0,0.0,67,0.00,,,0.00,WUHU216DAVISVP2,2013-10-19 03:28:00,
2013-10-18 20:33:00,61.9,51.6,29.98,NW,309,0.0,0.0,69,0.00,,,0.00,WUHU216DAVISVP2,2013-10-19 03:33:00,
2013-10-18 20:38:00,61.8,51.1,29.98,NW,309,0.0,0.0,68,0.00,,,0.00,WUHU216DAVISVP2,2013-10-19 03:38:00,
2013-10-18 20:43:00,61.7,51.0,29.98,NW,309,0.0,0.0,68,0.00,,,0.00,WUHU216DAVISVP2,2013-10-19 03:43:00,
2013-10-18 20:48:00,61.6,50.7,29.98,NW,309,0.0,0.0,67,0.00,,,0.00,WUHU216DAVISVP2,2013-10-19 03:48:00,
2013-10-18 20:53:00,61.4,50.5,29.98,NW,309,0.0,0.0,67,0.00,,,0.00,WUHU216DAVISVP2,2013-10-19 03:53:00,
2013-10-18 20:58:00,61.1,50.6,29.98,NW,309,0.0,0.0,68,0.00,,,0.00,WUHU216DAVISVP2,2013-10-19 03:58:00,
2013-10-18 21:03:00,60.8,50.7,29.98,NW,309,0.0,0.0,69,0.00,,,0.00,WUHU216DAVISVP2,2013-10-19 04:03:00,
2013-10-18 21:08:00,60.6,50.5,29.98,NW,309,0.0,0.0,69,0.00,,,0.00,WUHU216DAVISVP2,2013-10-19 04:08:00,
2013-10-18 21:13:00,60.4,50.3,29.98,NW,309,0.0,0.0,69,0.00,,,0.00,WUHU216DAVISVP2,2013-10-19 04:13:00,
2013-10-18 21:18:00,60.2,50.5,29.98,NW,309,0.0,0.0,70,0.00,,,0.00,WUHU216DAVISVP2,2013-10-19 04:18:00,
2013-10-18 21:23:00,59.8,50.5,29.98,NW,309,0.0,0.0,71,0.00,,,0.00,WUHU216DAVISVP2,2013-10-19 04:23:00,
2013-10-18 21:28:00,59.5,50.2,29.98,NW,309,0.0,0.0,71,0.00,,,0.00,WUHU216DAVISVP2,2013-10-19 04:28:00,
2013-10-18 21:33:00,59.4,50.1,29.98,NW,309,0.0,0.0,71,0.00,,,0.00,WUHU216DAVISVP2,2013-10-19 04:33:00,
2013-10-18 21:38:00,59.3,50.0,29.99,NW,309,0.0,0.0,71,0.00,,,0.00,WUHU216DAVISVP2,2013-10-19 04:38:00,
2013-10-18 21:44:00,59.2,49.8,29.99,NW,309,0.0,0.0,71,0.00,,,0.00,WUHU216DAVISVP2,2013-10-19 04:44:00,
2013-10-18 21:49:00,59.0,49.6,29.99,NW,309,0.0,0.0,71,0.00,,,0.00,WUHU216DAVISVP2,2013-10-19 04:49:00,
2013-10-18 21:54:00,58.9,49.5,29.99,NW,309,0.0,0.0,71,0.00,,,0.00,WUHU216DAVISVP2,2013-10-19 04:54:00,
2013-10-18 21:59:00,58.8,49.5,29.99,NW,309,0.0,0.0,71,0.00,,,0.00,WUHU216DAVISVP2,2013-10-19 04:59:00,
2013-10-18 22:04:00,58.6,49.4,29.99,NW,309,0.0,0.0,71,0.00,,,0.00,WUHU216DAVISVP2,2013-10-19 05:04:00,
2013-10-18 22:09:00,58.4,49.5,29.99,NW,309,0.0,0.0,72,0.00,,,0.00,WUHU216DAVISVP2,2013-10-19 05:09:00,
2013-10-18 22:14:00,58.2,49.2,30.00,NW,309,0.0,0.0,72,0.00,,,0.00,WUHU216DAVISVP2,2013-10-19 05:14:00,
2013-10-18 22:19:00,58.2,49.2,30.00,NW,309,0.0,0.0,72,0.00,,,0.00,WUHU216DAVISVP2,2013-10-19 05:19:00,
2013-10-18 22:24:00,58.0,49.1,30.00,NW,309,0.0,0.0,72,0.00,,,0.00,WUHU216DAVISVP2,2013-10-19 05:24:00,
2013-10-18 22:29:00,57.9,49.0,30.00,NW,309,0.0,0.0,72,0.00,,,0.00,WUHU216DAVISVP2,2013-10-19 05:29:00,
2013-10-18 22:34:00,57.7,49.2,30.00,NW,309,0.0,0.0,73,0.00,,,0.00,WUHU216DAVISVP2,2013-10-19 05:34:00,
2013-10-18 22:39:00,57.5,49.4,30.00,NW,309,0.0,0.0,74,0.00,,,0.00,WUHU216DAVISVP2,2013-10-19 05:39:00,
2013-10-18 22:44:00,57.2,49.1,30.00,NW,309,0.0,0.0,74,0.00,,,0.00,WUHU216DAVISVP2,2013-10-19 05:44:00,
2013-10-18 22:49:00,57.0,49.2,30.00,NW,309,0.0,0.0,75,0.00,,,0.00,WUHU216DAVISVP2,2013-10-19 05:49:00,
2013-10-18 22:54:00,56.9,48.7,30.00,NW,309,0.0,0.0,74,0.00,,,0.00,WUHU216DAVISVP2,2013-10-19 05:54:00,
2013-10-18 22:59:00,56.8,49.0,30.00,NW,309,0.0,0.0,75,0.00,,,0.00,WUHU216DAVISVP2,2013-10-19 05:59:00,
2013-10-18 23:04:00,56.7,48.9,30.00,NW,309,0.0,0.0,75,0.00,,,0.00,WUHU216DAVISVP2,2013-10-19 06:04:00,
2013-10-18 23:09:00,56.5,48.4,30.00,NW,309,0.0,0.0,74,0.00,,,0.00,WUHU216DAVISVP2,2013-10-19 06:09:00,
2013-10-18 23:14:00,56.4,48.3,30.00,NW,309,0.0,0.0,74,0.00,,,0.00,WUHU216DAVISVP2,2013-10-19 06:14:00,
2013-10-18 23:19:00,56.3,48.5,30.00,NW,309,0.0,0.0,75,0.00,,,0.00,WUHU216DAVISVP2,2013-10-19 06:19:00,
2013-10-18 23:24:00,56.1,48.4,30.00,NW,309,0.0,0.0,75,0.00,,,0.00,WUHU216DAVISVP2,2013-10-19 06:24:00,
2013-10-18 23:29:00,55.9,48.5,30.00,NW,309,0.0,0.0,76,0.00,,,0.00,WUHU216DAVISVP2,2013-10-19 06:29:00,
2013-10-18 23:34:00,55.7,48.3,30.00,NW,309,0.0,0.0,76,0.00,,,0.00,WUHU216DAVISVP2,2013-10-19 06:34:00,
2013-10-18 23:39:00,55.5,48.5,30.00,NW,309,0.0,0.0,77,0.00,,,0.00,WUHU216DAVISVP2,2013-10-19 06:39:00,
2013-10-18 23:44:00,55.4,48.4,30.00,NW,309,0.0,0.0,77,0.00,,,0.00,WUHU216DAVISVP2,2013-10-19 06:44:00,
2013-10-18 23:49:00,55.2,48.1,30.01,NW,309,0.0,0.0,77,0.00,,,0.00,WUHU216DAVISVP2,2013-10-19 06:49:00,
2013-10-18 23:54:00,55.0,47.9,30.01,NW,309,0.0,0.0,77,0.00,,,0.00,WUHU216DAVISVP2,2013-10-19 06:54:00,
2013-10-18 23:59:00,54.9,48.2,30.00,NW,309,0.0,0.0,78,0.00,,,0.00,WUHU216DAVISVP2,2013-10-19 06:59:00,